Spokane, WA
on Monday, January 14, 2013

Monday
Previous Day Next Day
Daily Summary
 ActualAverageRecord
Temperature
Mean Temperature °F 29°F  
Max Temperature 24°F 34°F 50°F (1973)
Min Temperature 16°F 25°F -28°F (1888)
Degree Days
Heating Degree Days 45 36  
Month to date heating degree days 572 514  
Since 1 July heating degree days 2997 3348  
Cooling Degree Days 0 0  
Month to date cooling degree days 0 0  
Year to date cooling degree days 0 0  
Moisture
Dew Point 17°F   
Average Humidity 83    
Maximum Humidity 92    
Minimum Humidity 74    
Precipitation
Precipitation 0.06 in 0.06 in 1.02 in (1988)
Month to date precipitation 1.05 0.89  
Year to date precipitation 1.05 0.89  
Snow
Snow 0.60 in 0.30 in 4.00 in (1976)
Month to date snowfall 11.8 6.3  
Since 1 July snowfall 35.8 28.4  
Snow Depth 2.00 in   
Wind
Wind Speed 4 mph   
Max Wind Speed 9 mph   
Max Gust Speed 13 mph   
Visibility 6 miles   
Events Snow   

Key: T is trace of precipitation, MM is missing value
Source: NWS Daily Summary
Time(PST)TemperatureDew PointHumidity Pressure Visibility Wind DirectionWind SpeedGust SpeedPrecipitationEvents Conditions
12:53 AM 17.1°F 12.9°F 84% 30.45 in 4.0 miles South 4.6 mph - 0.00 in Snow Light Snow
1:53 AM 17.1°F 12.9°F 84% 30.45 in 3.0 miles SSE 4.6 mph - 0.00 in Snow Light Snow
2:53 AM 17.1°F 14.0°F 88% 30.45 in 4.0 miles SSE 4.6 mph - 0.00 in Snow Light Snow
3:53 AM 18.0°F 15.1°F 88% 30.43 in 4.0 miles SE 3.5 mph - 0.01 in Snow Light Snow
4:53 AM 18.0°F 15.1°F 88% 30.40 in 9.0 miles South 4.6 mph - 0.00 in   Overcast
5:53 AM 19.0°F 16.0°F 88% 30.41 in 6.0 miles SSE 3.5 mph - 0.00 in Snow Light Snow
6:35 AM 19.4°F 15.8°F 86% 30.28 in 3.0 miles SSE 5.8 mph - 0.02 in Snow Light Snow
6:53 AM 19.0°F 16.0°F 88% 30.40 in 1.0 miles South 4.6 mph - 0.03 in Snow Light Snow
7:17 AM 19.4°F 15.8°F 86% 30.30 in 4.0 miles SSE 5.8 mph - 0.01 in   Overcast
7:51 AM 19.4°F 15.8°F 86% 30.28 in 2.5 miles SSE 6.9 mph - 0.01 in Snow Light Freezing Drizzle
7:53 AM 19.0°F 16.0°F 88% 30.39 in 2.5 miles SSE 6.9 mph - 0.01 in Snow Light Freezing Drizzle
8:24 AM 19.4°F 17.6°F 93% 30.29 in 2.0 miles SE 4.6 mph - 0.00 in   Light Freezing Drizzle
8:53 AM 19.9°F 17.1°F 89% 30.38 in 2.0 miles SSE 9.2 mph - 0.00 in Snow Light Freezing Drizzle
9:22 AM 19.4°F 17.6°F 93% 30.28 in 2.0 miles SSE 5.8 mph - 0.01 in   Light Freezing Drizzle
9:53 AM 21.0°F 19.0°F 92% 30.39 in 2.0 miles SSE 5.8 mph - 0.01 in Snow Light Freezing Drizzle
10:11 AM 21.2°F 19.4°F 93% 30.28 in 5.0 miles SSE 4.6 mph - 0.00 in   Overcast
10:53 AM 21.9°F 19.0°F 89% 30.38 in 10.0 miles SSE 4.6 mph - 0.00 in   Overcast
11:39 AM 21.2°F 19.4°F 93% 30.26 in 10.0 miles SSE 6.9 mph - N/A   Overcast
11:53 AM 21.9°F 19.0°F 89% 30.36 in 10.0 miles SSE 6.9 mph - N/A   Overcast
12:53 PM 23.0°F 19.0°F 85% 30.37 in 10.0 miles SE 4.6 mph - N/A   Overcast
1:53 PM 23.0°F 19.4°F 86% 30.28 in 10.0 miles SSE 4.6 mph - N/A   Overcast
2:53 PM 24.1°F 19.0°F 81% 30.39 in 10.0 miles SSE 4.6 mph - N/A   Overcast
3:53 PM 24.1°F 18.0°F 77% 30.39 in 7.0 miles South 4.6 mph - 0.00 in   Overcast
4:53 PM 24.1°F 18.0°F 77% 30.41 in 10.0 miles SSE 3.5 mph - N/A   Overcast
5:53 PM 24.1°F 19.0°F 81% 30.42 in 10.0 miles SSE 3.5 mph - N/A   Overcast
6:53 PM 24.1°F 19.0°F 81% 30.44 in 10.0 miles Calm Calm - N/A   Overcast
7:53 PM 24.1°F 19.0°F 81% 30.45 in 10.0 miles Calm Calm - N/A   Overcast
8:53 PM 23.0°F 19.9°F 88% 30.46 in 7.0 miles NNE 3.5 mph - N/A   Overcast
9:53 PM 21.9°F 19.9°F 92% 30.46 in 7.0 miles Calm Calm - N/A   Overcast
10:20 PM 19.4°F 17.6°F 93% 30.37 in 4.0 miles NE 3.5 mph - N/A   Mostly Cloudy
10:53 PM 21.0°F 19.0°F 92% 30.48 in 4.0 miles ENE 3.5 mph - N/A   Overcast
11:53 PM 21.9°F 19.0°F 89% 30.49 in 6.0 miles Calm Calm - N/A   Overcast
Moon Phase
Jan. 14 Jan. 18 Jan. 26 Feb. 03 Feb. 10
Sunrise:07:34 AM (PST) Moon Rise:08:52 AM (PST)1/14
Sunset:04:25 PM (PST) Moon Set:08:35 PM (PST)1/14

Copyright © 2014 The Weather Underground, Inc.